COSMOS 2491 DEB, 57560

Orbit data source: Space-Track

COSMOS 2491 DEB, 57560 is space debris in LEO originally from a launch on Wed, 25 Dec 2013 UTC launched from the Plesetsk Missile And Space Complex (PKMTR). Debris objects in space refer to the collection of defunct objects orbiting the Earth. Examples of debris include non-operational satellites, rocket bodies, and fragments generated from explosions, collisions, or faulty payload assembly.

Loading next visibility...
Identifier
57560, 2013-076AX
Orbit
LEO
Country
Flag of CISCIS
Related business
Manufacturer
TsNIIKhM
Mission
Spacecraft
Bus & Motor
Unknown
Mass
Unknown
Launch date (UTC)
2013-12-25 (12 years ago)
Launch vehicle
Unknown
Launch site
Plesetsk Missile And Space Complex (PKMTR)
Object type
Payload
Rocket body
Debris
Shape & HBR
Unknown shape, 0.1 m
Radar Cross Section
Small (<0.1 m²)

Expand to show TLE details & history
Last TLE update: 18 hours ago

TLE from 18 hours ago
0 COSMOS 2491 DEB
1 57560U 13076AX  25311.66032213  .00004029  00000-0  24680-1 0  9991
2 57560  82.4833 295.4605 0080666  52.1785 308.6568 12.54305807114409
Epoch: 2025-11-07T15:50Z
TLE epoch observation values (Epoch: 2025-11-07T15:50:51.832Z)
Latitude
0.00004°
Longitude
10.64344°
Altitude
1,410.131 km
Speed
7.173 km/s
True Right ascension
19h 41m 50s
True Declination
0° 00' 00"
Sunlit
Object was in daylight at epoch
Visualization orbit readout
Latitude
Unknown
Longitude
Unknown
Altitude
Unknown
Speed
Unknown
Apparent Right ascension
Unknown
Apparent Declination
Unknown
Sunlit
N/A
Visualization observer readout
Local Sidereal Time
06:23:10
Azimuth
Unknown
Elevation
Unknown
Doppler factor
Unknown
Orbital elements
Apogee altitude
1,506.969 km
Perigee altitude
1,380.775 km
Semi-major axis
7,822.009 km
Eccentricity
0.00807
Inclination
82.4833°
RAAN
295.4605°
Arg. of periapsis
52.1785°
True anomaly
307.93041°
Mean anomaly
308.6568°
Eccentric anomaly
308.29406°
Mean motion
3.13737 °/min
Orbital period
114.75 mins
BSTAR
0.02468
Loading maneuver chart data...
Computing Atmospheric mass density...
Loading historical data...
Loading historical data...
Loading historical data...
Loading historical data...
Loading historical data...
Loading historical data...
Loading historical data...

Documentation

Showing up to 5 results
|